Lid_Strength_Index
1 3 7 9 13 15 17 15 13 13 14 12 12 13 14 13 14 16 9 8 7 6 5 5 -0 -1 -1 -2 -1 -1 -1 -2 -1 -2 -2 -2 -2 -2 -2 -3 -2 -2 -2 -2 -2 -2 -2 -2 -2
3 4 8 12 16 19 17 14 13 12 12 12 12 13 14 14 11 11 10 8 7 7 6 5 0 -0 -0 -0 -0 -1 -0 -0 -1 -1 -1 -2 -2 -2 -2 -2 -2 -2 -2 -2 -2 -2 -2 -2 -2
4 7 10 14 17 18 17 14 13 12 12 13 14 13 13 14 12 12 10 8 8 8 7 4 1 1 0 0 0 0 1 1 1 0 0 -0 -0 -1 -1 -2 -2 -2 -2 -3 -2 -2 -2 -2 -2
7 9 12 15 17 16 14 13 13 13 13 12 14 15 13 12 12 11 10 10 10 9 8 5 2 1 1 1 1 1 1 1 1 1 1 1 1 0 0 -1 -2 -2 -2 -3 -3 -2 -2 -2 -2
9 12 16 17 18 16 14 12 12 13 14 14 13 16 15 12 11 11 11 11 11 11 10 7 2 2 2 2 2 2 2 2 2 2 2 2 2 2 1 1 0 -1 -1 -2 -3 -2 -2 -2 -2
11 13 17 19 18 16 15 13 12 14 14 14 14 15 15 12 12 12 12 12 12 11 10 9 5 3 3 3 3 3 3 3 3 3 3 3 3 2 2 2 1 0 -0 -1 -2 -2 -2 -2 -2
12 15 18 18 17 16 14 13 14 14 14 15 14 16 15 14 13 13 13 13 12 12 11 10 8 5 5 5 5 5 4 4 5 5 4 5 5 4 4 3 2 1 0 -0 -1 -1 -1 -2 -1
12 14 17 18 17 16 14 14 13 14 15 13 13 17 17 15 12 13 13 13 13 13 12 11 10 8 7 8 6 6 6 6 6 7 6 6 6 5 5 5 3 2 1 0 0 -0 -0 -1 -0
11 15 17 16 16 15 14 14 14 15 15 16 15 15 14 13 13 14 15 14 14 12 12 12 11 10 8 8 8 7 7 7 8 8 8 8 8 8 8 6 4 3 2 1 1 1 1 1 1
12 15 15 14 14 15 14 14 15 16 17 17 17 15 14 14 15 15 16 16 15 14 13 12 12 11 9 8 9 10 10 10 10 11 10 10 9 9 8 7 5 4 3 2 2 1 1 2 3
13 15 15 14 14 13 14 15 15 16 17 17 17 16 16 16 16 16 16 16 16 15 13 12 12 11 11 10 10 11 10 11 11 11 11 11 11 11 9 8 7 6 5 5 5 5 5 4 4
14 14 14 13 13 13 14 14 16 16 16 14 16 16 16 16 16 16 16 16 16 14 13 12 12 11 11 11 11 11 11 12 12 11 11 11 12 12 11 9 7 6 6 5 5 5 5 5 4
15 15 13 13 13 14 13 15 16 17 17 15 16 15 16 17 17 17 16 16 15 14 13 13 12 12 11 12 12 11 11 12 12 12 11 11 12 11 11 10 8 6 5 5 5 4 4 4 4
15 14 14 13 14 13 14 16 15 16 17 16 16 17 17 17 17 17 17 16 16 14 14 13 12 12 12 12 12 12 12 12 12 12 12 11 11 11 11 10 9 7 6 5 5 5 4 4 4
15 16 15 15 14 15 14 16 16 15 16 17 17 17 17 17 16 17 16 16 15 14 14 13 12 13 13 13 13 12 12 11 12 12 11 11 10 10 10 10 9 8 6 5 5 5 5 4 4
16 17 18 16 15 15 16 19 16 15 17 17 17 18 17 17 17 17 16 16 16 15 14 14 12 13 13 13 13 13 12 12 12 12 11 10 10 10 10 9 9 8 7 6 6 6 6 5 5
18 20 20 18 15 15 17 19 16 15 16 17 18 18 18 18 17 17 16 17 16 15 15 15 14 14 14 14 13 13 13 13 13 13 12 11 10 10 9 9 9 8 8 7 6 6 6 6 6
20 20 19 19 17 17 17 18 17 15 16 16 18 18 18 18 17 17 16 17 16 16 15 15 15 15 14 14 14 14 13 14 13 13 12 11 10 10 9 9 9 8 8 8 7 7 6 6 6
18 19 20 19 17 17 18 18 17 16 16 16 17 17 18 18 17 16 16 17 17 16 16 16 16 16 15 16 16 15 16 14 14 13 12 12 11 10 10 10 9 9 9 9 8 7 7 7 6
18 19 20 18 17 17 19 18 16 16 15 15 15 16 17 18 17 17 17 18 17 17 16 16 16 16 16 16 16 15 16 15 15 14 13 12 12 11 10 11 10 10 9 9 9 8 7 7 6
18 18 19 19 18 18 19 20 19 17 16 15 14 14 15 17 17 17 17 18 18 17 17 16 16 16 17 16 16 16 16 15 15 14 14 13 12 11 11 11 11 11 10 10 9 8 8 8 7
19 17 17 18 19 22 20 23 20 18 17 16 15 16 16 17 16 17 17 18 18 17 17 17 16 17 17 17 18 18 17 17 16 16 14 14 13 12 11 11 11 11 11 11 10 8 8 8 8
18 17 17 18 20 21 21 23 20 19 18 17 16 15 16 16 16 17 17 17 17 17 18 17 17 18 18 18 18 18 18 17 16 16 15 14 14 12 12 12 12 12 12 11 10 9 8 7 7
17 18 18 20 21 27 22 22 22 20 18 17 17 15 16 16 16 17 17 17 17 18 18 18 18 19 18 18 18 19 18 18 17 16 16 16 15 13 13 13 13 12 12 12 10 9 8 8 7
19 20 28 27 30 26 22 23 20 18 17 16 16 17 17 16 17 18 18 17 18 18 18 18 19 19 19 18 18 18 18 17 17 17 17 17 16 15 15 14 14 13 12 11 10 9 9 8 8
20 20 24 29 29 25 21 24 19 17 17 16 16 16 17 18 18 18 17 17 18 17 18 18 19 20 19 19 18 18 18 18 17 18 18 18 17 17 15 14 14 13 12 11 10 9 9 8 8
20 22 20 27 32 28 22 20 18 17 18 17 17 18 19 18 18 18 17 17 18 18 18 19 19 20 19 19 18 19 19 19 19 19 19 19 18 16 16 14 14 13 12 11 11 9 9 8 8
20 19 23 26 29 31 25 23 20 19 17 18 18 19 19 18 19 18 17 18 18 18 18 19 19 19 19 19 19 20 20 19 19 19 20 19 18 17 16 15 14 13 12 12 10 10 9 8 8
22 23 22 22 23 27 29 23 18 17 17 17 17 18 19 18 18 18 17 18 18 19 19 19 20 20 19 19 20 20 20 20 20 20 20 20 18 17 16 15 14 14 13 12 11 10 9 9 8
20 21 21 25 26 26 26 24 17 17 17 17 17 18 19 18 18 18 18 18 19 19 20 20 20 20 20 20 20 20 20 21 21 21 21 20 19 18 16 15 14 14 13 12 11 10 9 9 9